Preview of NWS' New Version of Forecast
This preview is not operational and should not be used for support decisions.

Regional Weather Roundup (RWR)

Issued by National Weather Service (NWS)

                            
000
ASUS43 KDTX 190201
RWRMI 
MICHIGAN HOURLY REGIONAL WEATHER ROUNDUP
NATIONAL WEATHER SERVICE DETROIT/PONTIAC MI
1000 PM EDT THU APR 18 2019

NOTE: "FAIR" INDICATES FEW OR NO CLOUDS BELOW 12,000 FEET WITH NO
SIGNIFICANT WEATHER AND/OR OBSTRUCTION TO VISIBILITY.

MIZ047>049-052>055-059>063-066>070-074>076-081>083-190300-
SOUTHEAST LOWER MICHIGAN
  
CITY           SKY/WX    TMP DP  RH WIND       PRES   REMARKS
ADRIAN         LGT RAIN  50  46  86 N9        29.67R                  
ALMA           CLOUDY    44  40  85 W10       29.71R                  
ANN ARBOR      CLOUDY    51  48  89 W9        29.66R                  
BAD AXE        LGT RAIN  47  46  95 NW6       29.65R                  
CARO           CLOUDY    49  46  90 W8        29.66R                  
DETROIT CITY   LGT RAIN  55  52  89 NW8       29.63F                  
DETROIT        LGT RAIN  54  49  83 NW9       29.64R                  
FLINT          CLOUDY    49  45  86 NW14      29.67R                  
GROSSE ILE     LGT RAIN  55  53  91 NW8       29.63S                  
HILLSDALE      CLOUDY    46  42  85 NW12      29.69R                  
HOWELL         LGT RAIN  48  44  84 W13       29.66R                  

CITY           SKY/WX    TMP DP  RH WIND       PRES   REMARKS
JACKSON        CLOUDY    46  42  86 W9        29.68R                  
LAMBERTVILLE   LGT RAIN  53  51  91 NW7       29.66R                  
LANSING        CLOUDY    43  40  89 NW14      29.70R                  
LAPEER         DRIZZLE   52  49  90 NW9       29.65R                  
MASON          CLOUDY    46  42  88 W12       29.69R                  
MONROE         LGT RAIN  55  55  97 NW7       29.64R                  
PONTIAC        CLOUDY    52  50  93 NW10      29.64R                  
PORT HOPE        N/A     41  39  93 NW8       29.64R                  
PORT HURON     LGT RAIN  55  52  88 W5        29.64R                  
TRI CITIES     CLOUDY    45  41  86 W15       29.69R                  
MIDLAND        CLOUDY    44  40  86 W10       29.68R                  
TROY           LGT RAIN  55  50  83 NW7       29.65S                  
SAGINAW HB     CLOUDY    46  43  87 W13G21    29.68R                  
$$
MIZ043>046-050>051-056>058-064>065-071>073-077>080-190300-
SOUTHWEST LOWER MICHIGAN
  
CITY           SKY/WX    TMP DP  RH WIND       PRES   REMARKS
BATTLE CREEK   CLOUDY    42  37  82 NW13G20   29.72S                  
BENTON HARBOR  CLOUDY    41  37  86 VRB6      29.76F                  
BIG RAPIDS     CLOUDY    39  37  93 NW8       29.72R WCI  34          
COLDWATER      CLOUDY    44  41  89 NW10G16   29.72R                  
FREMONT        CLOUDY    40  38  94 NW12G18   29.74R WCI  33          
HOLLAND        CLOUDY    41  37  86 NW10G23   29.75R                  
GRAND RAPIDS   CLOUDY    41  37  86 NW13      29.73R                  
IONIA          CLOUDY    42  37  81 NW13      29.71R                  
KALAMAZOO      CLOUDY    42  37  82 NW14      29.73F                  
LUDINGTON      CLOUDY    39  36  89 N13G20    29.76R WCI  32          
MARSHALL       CLOUDY    42  42 100 NW7       29.71R                  
MOUNT PLEASANT CLOUDY    42  39  91 NW9       29.70R                  
MUSKEGON       CLOUDY    42  35  76 NW14      29.76R                  
SOUTH HAVEN    CLOUDY    41  38  91 N7        29.76F                  
$$
MIZ016>042-190300-
NORTHERN LOWER MICHIGAN
  
CITY           SKY/WX    TMP DP  RH WIND       PRES   REMARKS
ALPENA         CLOUDY    42  40  92 NW10      29.67R                  
BEAVER ISLAND  CLOUDY    37  37  97 N6        29.75R WCI  33          
BELLAIRE       CLOUDY    39  37  92 N6        29.72R WCI  34          
CADILLAC       CLOUDY    38  37  94 NW7       29.69R FOG     WCI  33  
CHARLEVOIX     CLOUDY    36  36  98 N8        29.75R FOG     WCI  30  
FRANKFORT      CLOUDY    41  37  85 NW10      29.75R FOG              
HARBOR SPRINGS CLOUDY    38  37  97 N7        29.71R FOG     WCI  32  
HOUGHTON LAKE  CLOUDY    38  36  92 NW9       29.68S WCI  31          
MANISTEE       LGT RAIN  38  37  97 NW9       29.76R FOG     WCI  31  
OSCODA         CLOUDY    43  43 100 W10       29.65R                  
PELLSTON       LGT RAIN  38  37  97 N12       29.72R FOG     WCI  30  
ROGERS CITY    MIX PCPN  37  36  98 NW9       29.70R WCI  30          
TRAVERSE CITY  DRIZZLE   39  37  92 NW9       29.72R FOG     WCI  33  
$$
MIZ007>008-015-190300-
EASTERN UPPER MICHIGAN
  
CITY           SKY/WX    TMP DP  RH WIND       PRES   REMARKS
KINROSS        MIX PCPN  36  36 100 N12       29.72R WCI  28          
MACKINAC ISLAN CLOUDY    37  37 100 N13       29.72R WCI  28          
NEWBERRY       CLOUDY    37  35  91 N12G20    29.75R WCI  30          
S. S. MARIE    CLOUDY    39  36  89 W5        29.72R                  
MUNISING         N/A     37  33  85 N12       29.83R WCI  29          
$$
MIZ004>006-011>014-085-190300-
CENTRAL UPPER MICHIGAN
  
CITY           SKY/WX    TMP DP  RH WIND       PRES   REMARKS
MANISTIQUE     CLOUDY    40  34  80 N14       29.77R WCI  32          
ESCANABA       CLOUDY    40  36  86 NW8G17    29.81R WCI  34          
MENOMINEE      LGT RAIN  41  38  89 N10       29.83R                  
SAWYER-GWINN   CLOUDY    39  34  81 N18G26    29.84R WCI  30          
$$
MIZ001>003-009>011-084-190300-
WESTERN UPPER MICHIGAN
  
CITY           SKY/WX    TMP DP  RH WIND       PRES   REMARKS
IRON MOUNTAIN  LGT RAIN  40  36  86 N9        29.85R WCI  34          
HOUGHTON       FAIR      39  31  72 N6        29.89R WCI  35          
COPPER HARBOR    N/A     35  31  85 VRB3      29.89R                  
IRONWOOD       CLOUDY    37  35  92 CALM      29.94R FOG              
$$

ABBREVIATIONS USED IN REMARKS
   TC - TEMPERATURE IN CELSIUS
  WCI - WIND CHILL INDEX
   HX - HEAT INDEX
  VSB - VISIBILITY